TimeICT,TemperatureF,Dew PointF,Humidity,Sea Level PressureIn,VisibilityMPH,Wind Direction,Wind SpeedMPH,Gust SpeedMPH,PrecipitationIn,Events,Conditions,WindDirDegrees,DateUTC
12:00 AM,80.6,69.8,70,29.83,6.2,NNW,4.6,-,N/A,,Mostly Cloudy,340,2013-01-12 17:00:00
12:30 AM,80.6,71.6,74,29.83,5.6,North,4.6,-,N/A,,Mostly Cloudy,350,2013-01-12 17:30:00
1:00 AM,80,71,68,29.86,6,NNW,3.5,,,,Mist,340,2013-01-12 18:00:00
1:00 AM,78.8,71.6,78,29.83,5.6,NNW,3.5,-,N/A,,Mostly Cloudy,340,2013-01-12 18:00:00
1:30 AM,78.8,71.6,78,29.83,5.6,North,3.5,-,N/A,,Mostly Cloudy,10,2013-01-12 18:30:00
2:00 AM,78.8,71.6,78,29.83,5.6,NE,3.5,-,N/A,,Mostly Cloudy,50,2013-01-12 19:00:00
2:30 AM,78.8,71.6,78,29.83,5.6,ENE,3.5,-,N/A,,Mostly Cloudy,70,2013-01-12 19:30:00
3:00 AM,78.8,71.6,78,29.83,5.6,ENE,3.5,-,N/A,,Mostly Cloudy,60,2013-01-12 20:00:00
3:30 AM,77.0,71.6,83,29.83,5.6,NE,3.5,-,N/A,,Mostly Cloudy,50,2013-01-12 20:30:00
4:00 AM,77.0,69.8,78,29.83,5.0,ENE,3.5,-,N/A,,Mostly Cloudy,60,2013-01-12 21:00:00
4:30 AM,77.0,69.8,78,29.83,5.0,Calm,Calm,-,N/A,,Mostly Cloudy,0,2013-01-12 21:30:00
5:00 AM,77.0,69.8,78,29.83,5.0,ENE,3.5,-,N/A,,Mostly Cloudy,60,2013-01-12 22:00:00
5:30 AM,77.0,69.8,78,29.83,5.0,NE,3.5,-,N/A,,Mostly Cloudy,40,2013-01-12 22:30:00
6:00 AM,77.0,69.8,78,29.86,4.3,Calm,Calm,-,N/A,,Mostly Cloudy,0,2013-01-12 23:00:00
6:30 AM,77.0,69.8,78,29.86,4.3,Calm,Calm,-,N/A,,Mostly Cloudy,0,2013-01-12 23:30:00
7:00 AM,77,71,75,29.89,4,ENE,3.5,,,,Mist,60,2013-01-13 00:00:00
7:00 AM,77.0,69.8,78,29.86,3.7,ENE,3.5,-,N/A,,Mostly Cloudy,60,2013-01-13 00:00:00
7:30 AM,77.0,71.6,83,29.89,3.7,Calm,Calm,-,N/A,,Scattered Clouds,0,2013-01-13 00:30:00
8:00 AM,78.8,71.6,78,29.89,4.3,ESE,3.5,-,N/A,,Scattered Clouds,120,2013-01-13 01:00:00
8:30 AM,78.8,69.8,74,29.89,4.3,ENE,4.6,-,N/A,,Scattered Clouds,60,2013-01-13 01:30:00
9:00 AM,80.6,69.8,70,29.89,5.0,East,2.3,-,N/A,,Scattered Clouds,90,2013-01-13 02:00:00
9:30 AM,82.4,69.8,66,29.89,5.6,East,6.9,-,N/A,,Scattered Clouds,90,2013-01-13 02:30:00
10:00 AM,82.4,69.8,66,29.89,5.6,ENE,4.6,-,N/A,,Scattered Clouds,60,2013-01-13 03:00:00
10:30 AM,84.2,68.0,58,29.89,6.2,East,3.5,-,N/A,,Scattered Clouds,90,2013-01-13 03:30:00
11:00 AM,86.0,69.8,58,29.89,6.2,ENE,6.9,-,N/A,,Scattered Clouds,70,2013-01-13 04:00:00
11:30 AM,86.0,69.8,58,29.86,6.2,NNW,2.3,-,N/A,,Scattered Clouds,330,2013-01-13 04:30:00
12:00 PM,84.2,66.2,55,29.86,6.2,Calm,Calm,-,N/A,,Scattered Clouds,0,2013-01-13 05:00:00
12:30 PM,87.8,66.2,49,29.83,6.2,West,2.3,-,N/A,,Scattered Clouds,270,2013-01-13 05:30:00
1:00 PM,88,64,35,29.84,6,SSW,5.8,,,,Scattered Clouds,210,2013-01-13 06:00:00
1:00 PM,87.8,64.4,46,29.83,6.2,SSW,5.8,-,N/A,,Mostly Cloudy,210,2013-01-13 06:00:00
1:30 PM,89.6,62.6,40,29.80,6.2,East,5.8,-,N/A,,Mostly Cloudy,90,2013-01-13 06:30:00
2:00 PM,91.4,62.6,38,29.77,6.2,NNW,10.4,-,N/A,,Mostly Cloudy,330,2013-01-13 07:00:00
2:30 PM,87.8,62.6,43,29.77,6.2,South,5.8,-,N/A,,Mostly Cloudy,170,2013-01-13 07:30:00
3:00 PM,91.4,66.2,43,29.77,6.2,SSW,5.8,-,N/A,,Scattered Clouds,210,2013-01-13 08:00:00
3:30 PM,91.4,60.8,36,29.74,6.2,ESE,4.6,-,N/A,,Scattered Clouds,120,2013-01-13 08:30:00
4:00 PM,89.6,57.2,33,29.77,6.2,SSE,2.3,-,N/A,,Scattered Clouds,150,2013-01-13 09:00:00
4:30 PM,89.6,59.0,36,29.77,6.2,East,6.9,-,N/A,,Scattered Clouds,80,2013-01-13 09:30:00
5:00 PM,89.6,57.2,33,29.77,6.2,ESE,3.5,-,N/A,,Scattered Clouds,120,2013-01-13 10:00:00
5:30 PM,87.8,55.4,33,29.77,6.2,WNW,3.5,-,N/A,,Mostly Cloudy,300,2013-01-13 10:30:00
6:00 PM,84.2,57.2,40,29.77,6.2,WSW,5.8,-,N/A,,Mostly Cloudy,240,2013-01-13 11:00:00
6:30 PM,82.4,59.0,45,29.80,6.2,SSW,4.6,-,N/A,,Mostly Cloudy,210,2013-01-13 11:30:00
7:00 PM,78.8,60.8,54,29.80,6.2,SSW,4.6,-,N/A,,Scattered Clouds,210,2013-01-13 12:00:00
7:30 PM,80.6,62.6,54,29.80,6.2,SSW,5.8,-,N/A,,Scattered Clouds,210,2013-01-13 12:30:00
8:00 PM,78.8,62.6,57,29.83,6.2,SSW,3.5,-,N/A,,Scattered Clouds,210,2013-01-13 13:00:00
8:30 PM,78.8,62.6,57,29.83,6.2,WSW,3.5,-,N/A,,Scattered Clouds,240,2013-01-13 13:30:00
9:00 PM,82.4,64.4,54,29.83,6.2,South,3.5,-,N/A,,Scattered Clouds,190,2013-01-13 14:00:00
9:30 PM,82.4,64.4,54,29.83,6.2,South,3.5,-,N/A,,Scattered Clouds,170,2013-01-13 14:30:00
10:00 PM,82.4,66.2,58,29.83,6.2,South,3.5,-,N/A,,Scattered Clouds,180,2013-01-13 15:00:00
10:30 PM,82.4,68.0,62,29.83,-9999.0,Calm,Calm,-,N/A,,Clear,0,2013-01-13 15:30:00
11:00 PM,82.4,68.0,62,29.83,-9999.0,SSE,2.3,-,N/A,,Clear,160,2013-01-13 16:00:00
11:30 PM,82.4,69.8,66,29.83,-9999.0,SE,4.6,-,N/A,,Clear,140,2013-01-13 16:30:00